Theta_e
325 325 324 324 323 322 323 322 323 322 323 323 323 322 322 320 320 319 318 318 319 319
323 323 323 324 324 323 323 322 321 321 321 322 322 322 321 320 320 320 319 318 318 318
321 322 323 322 321 321 322 321 320 320 320 320 320 321 321 320 320 320 320 320 319 319
318 319 319 320 320 320 320 319 319 320 320 320 320 321 320 320 320 319 319 319 318 317
312 313 315 316 316 317 317 319 319 320 320 320 320 320 320 319 320 319 318 318 318 318
308 308 309 309 308 306 306 305 306 309 311 311 311 311 312 312 312 315 316 317 317 317
300 299 298 297 298 299 300 301 303 304 304 304 305 305 304 303 304 305 308 309 310 308
295 296 296 296 296 297 299 299 299 300 300 300 301 299 299 297 299 299 301 301 303 302
294 294 294 294 294 295 295 297 297 297 295 295 293 294 294 296 297 297 295 296 296 296
291 291 291 290 290 291 293 294 291 292 292 291 292 294 294 292 293 293 294 291 291 291
289 289 289 289 289 290 290 289 289 289 289 289 289 292 292 292 291 291 291 291 290 291
288 288 288 287 290 290 287 288 288 288 287 287 287 291 292 291 289 288 288 288 289 289
287 287 288 289 289 287 287 286 286 286 286 286 286 290 292 289 286 286 286 287 286 286
286 288 289 289 287 287 286 286 286 286 285 286 285 287 292 291 287 286 285 285 285 286
Wind_Speed
16 10 11 10 9 8 9 7 7 9 10 11 12 10 10 9 10 10 11 15 12 10
14 13 13 13 8 8 8 6 8 9 10 11 11 11 10 8 10 10 10 12 12 11
13 13 12 8 11 10 8 9 9 9 9 10 10 10 10 9 10 10 9 9 11 11
10 9 9 9 8 9 8 8 8 9 9 10 9 10 10 10 10 9 9 9 10 12
7 7 8 8 8 7 7 6 7 7 7 8 8 8 8 10 9 10 12 11 11 11
7 7 8 6 5 4 4 3 3 3 4 2 2 1 2 2 3 4 5 6 6 10
8 7 6 5 6 6 5 5 4 3 2 1 2 2 3 3 5 7 7 7 4 4
7 6 6 6 6 6 5 4 4 4 2 1 2 1 2 3 4 7 7 4 5 3
8 7 6 6 7 6 6 5 5 5 4 4 2 4 4 3 3 4 4 5 5 3
8 7 7 6 7 6 6 5 5 4 3 2 1 3 3 3 3 3 3 3 3 3
8 7 7 6 6 5 4 5 4 4 4 2 1 5 5 3 1 2 3 4 5 5
8 8 8 7 7 5 5 5 4 4 3 2 0 4 5 2 2 3 4 5 6 6
8 9 9 8 7 4 4 5 4 5 3 3 3 3 3 4 2 2 2 3 3 6
9 10 10 9 5 6 7 7 6 6 3 3 2 0 6 6 3 3 2 2 3 2
Wind_Direction
209 211 215 214 209 211 215 219 201 201 213 220 223 224 220 223 229 225 227 235 235 242
204 205 210 212 208 210 206 207 196 203 208 219 220 223 221 224 228 227 229 232 234 234
201 205 210 194 200 200 206 200 205 208 214 220 224 226 221 230 234 234 235 237 241 242
193 192 194 204 202 204 202 199 209 215 219 220 222 223 228 229 233 232 248 248 249 255
156 168 189 200 199 194 206 203 214 217 221 221 222 223 228 243 236 239 248 242 241 241
172 177 194 194 178 174 174 165 155 191 204 186 131 327 316 327 315 298 283 269 263 274
181 183 179 167 160 152 144 149 160 160 192 263 280 311 323 322 302 281 282 289 313 326
161 157 151 149 147 140 150 140 149 156 167 193 242 272 277 282 289 290 288 301 295 290
149 147 153 145 142 144 143 151 155 174 182 193 203 245 259 273 283 269 271 281 279 273
144 151 162 151 150 152 157 150 170 168 142 137 63 4 330 316 286 299 288 274 269 279
154 157 149 145 157 146 141 156 142 117 103 101 13 357 344 4 13 290 285 323 318 309
158 151 152 150 158 152 145 131 129 125 115 119 83 19 357 42 51 27 7 352 339 344
146 148 152 147 153 139 134 124 129 126 141 136 79 14 91 107 79 73 55 9 355 4
143 153 155 147 146 140 136 141 138 133 131 128 126 289 126 113 131 129 108 64 12 20